Temp
-7 -8 -8 -7 -7 -7 -7 -7 -7 -7 -7 -6 -6 -6 -6 -6 -6 -6 -6 -6 -6 -7 -7 -6 -6 -6 -6 -6 -6 -7 -6 -6 -7 -6 -7 -6 -6 -6 -6 -6 -6 -6 -6
-7 -7 -7 -7 -7 -7 -7 -7 -6 -7 -7 -7 -6 -6 -6 -6 -6 -6 -6 -6 -7 -7 -7 -7 -7 -6 -6 -6 -7 -7 -7 -6 -6 -7 -7 -6 -6 -7 -6 -6 -6 -6 -6
-7 -7 -7 -7 -7 -7 -6 -7 -6 -6 -6 -7 -8 -7 -7 -6 -7 -6 -6 -7 -7 -7 -7 -7 -6 -6 -6 -6 -6 -6 -6 -6 -7 -7 -7 -7 -7 -7 -7 -7 -6 -6 -6
-7 -7 -7 -7 -7 -7 -7 -6 -6 -6 -6 -6 -7 -7 -8 -7 -7 -6 -6 -7 -7 -7 -6 -7 -6 -7 -7 -6 -6 -6 -6 -6 -6 -7 -7 -7 -7 -7 -6 -6 -6 -6 -6
-7 -6 -7 -7 -7 -7 -7 -7 -6 -6 -6 -6 -6 -7 -7 -7 -8 -7 -7 -7 -7 -7 -7 -7 -7 -7 -6 -7 -6 -6 -6 -6 -6 -6 -6 -7 -7 -7 -7 -6 -6 -6 -6
-7 -6 -6 -6 -7 -7 -7 -7 -7 -7 -6 -7 -7 -6 -7 -7 -7 -8 -8 -8 -8 -7 -7 -7 -7 -7 -7 -7 -7 -6 -6 -6 -6 -6 -6 -7 -7 -7 -7 -6 -6 -7 -7
-7 -7 -7 -7 -6 -6 -6 -7 -7 -7 -7 -7 -7 -7 -6 -6 -7 -7 -7 -7 -7 -8 -8 -8 -7 -7 -7 -6 -5 -6 -7 -7 -7 -6 -7 -7 -6 -7 -7 -7 -6 -6 -6
-8 -8 -8 -8 -8 -7 -7 -7 -7 -7 -7 -7 -7 -7 -7 -7 -6 -6 -6 -7 -7 -7 -7 -7 -7 -6 -7 -7 -7 -7 -7 -7 -7 -7 -7 -7 -6 -6 -7 -7 -6 -6 -7
-8 -8 -8 -8 -8 -8 -8 -8 -8 -8 -7 -7 -7 -7 -7 -7 -7 -6 -7 -7 -7 -7 -7 -6 -7 -6 -6 -6 -6 -6 -6 -6 -6 -6 -7 -7 -7 -7 -7 -6 -7 -7 -7
-8 -8 -8 -8 -8 -7 -7 -8 -8 -8 -8 -8 -7 -7 -7 -7 -7 -7 -7 -7 -7 -7 -6 -6 -6 -6 -6 -5 -5 -6 -6 -6 -6 -6 -7 -7 -7 -7 -7 -7 -6 -7 -7
-8 -8 -8 -8 -8 -8 -8 -8 -8 -9 -8 -8 -8 -8 -8 -7 -7 -7 -7 -7 -7 -7 -7 -6 -6 -6 -6 -6 -6 -6 -6 -6 -6 -6 -6 -6 -6 -7 -7 -7 -7 -7 -7
-8 -8 -8 -9 -9 -8 -8 -9 -9 -9 -9 -9 -8 -8 -8 -8 -7 -7 -7 -7 -7 -7 -7 -7 -7 -7 -6 -6 -6 -6 -6 -6 -6 -6 -6 -6 -6 -6 -6 -6 -6 -7 -7
-9 -9 -9 -9 -9 -9 -9 -9 -9 -9 -9 -9 -9 -8 -8 -8 -8 -8 -7 -7 -7 -7 -7 -7 -7 -7 -7 -7 -6 -6 -6 -6 -6 -6 -6 -6 -6 -6 -6 -6 -6 -6 -6
-10 -10 -10 -10 -10 -10 -10 -10 -9 -9 -9 -9 -9 -8 -8 -8 -8 -8 -8 -8 -8 -7 -8 -8 -8 -8 -7 -7 -7 -7 -6 -6 -6 -6 -6 -6 -6 -6 -6 -6 -6 -6 -6
-11 -10 -10 -10 -10 -10 -10 -10 -10 -10 -9 -9 -9 -9 -9 -9 -9 -9 -8 -8 -8 -8 -8 -8 -8 -8 -8 -8 -7 -7 -7 -6 -6 -7 -7 -7 -6 -6 -6 -6 -6 -6 -6
-11 -11 -10 -10 -10 -10 -10 -10 -10 -10 -10 -9 -9 -9 -9 -9 -9 -8 -8 -8 -8 -8 -8 -8 -8 -8 -8 -8 -8 -8 -7 -7 -7 -7 -7 -7 -7 -7 -7 -6 -6 -6 -6
-11 -11 -11 -11 -10 -10 -10 -10 -10 -10 -10 -10 -9 -9 -9 -9 -9 -9 -8 -9 -9 -8 -8 -8 -8 -8 -8 -8 -8 -8 -8 -8 -7 -7 -7 -7 -7 -7 -7 -7 -6 -6 -7
-11 -11 -11 -11 -11 -10 -10 -10 -10 -9 -10 -10 -10 -9 -9 -9 -9 -9 -9 -9 -9 -9 -9 -9 -8 -8 -9 -8 -8 -8 -8 -9 -8 -8 -7 -7 -8 -8 -8 -7 -7 -7 -7
-12 -11 -11 -11 -10 -10 -10 -10 -9 -9 -9 -9 -10 -9 -9 -9 -9 -9 -9 -9 -9 -9 -9 -9 -9 -9 -9 -9 -9 -9 -9 -9 -9 -9 -9 -8 -8 -8 -8 -8 -7 -7 -7
-12 -12 -11 -11 -11 -11 -10 -10 -10 -9 -9 -9 -9 -9 -9 -9 -9 -9 -9 -9 -9 -9 -9 -10 -10 -10 -10 -10 -10 -10 -10 -10 -9 -9 -9 -9 -9 -8 -8 -9 -9 -8 -8
-12 -12 -12 -12 -12 -11 -11 -11 -10 -10 -10 -10 -9 -9 -9 -9 -10 -10 -10 -10 -10 -10 -10 -11 -11 -11 -11 -11 -11 -11 -11 -10 -10 -10 -10 -9 -9 -9 -9 -9 -10 -9 -9
-13 -13 -12 -12 -12 -12 -12 -11 -11 -11 -11 -10 -10 -10 -11 -11 -11 -11 -12 -12 -12 -12 -12 -12 -12 -12 -12 -12 -11 -11 -11 -11 -11 -11 -11 -10 -10 -10 -10 -10 -10 -10 -10
-13 -13 -13 -13 -13 -13 -13 -13 -13 -13 -13 -12 -12 -12 -12 -12 -12 -12 -12 -12 -12 -12 -12 -12 -12 -13 -13 -13 -12 -12 -12 -12 -12 -12 -12 -12 -11 -11 -10 -11 -11 -11 -10
-14 -14 -14 -14 -15 -14 -14 -14 -14 -13 -13 -13 -13 -13 -13 -12 -12 -12 -12 -12 -12 -13 -12 -12 -12 -13 -13 -13 -12 -12 -12 -12 -12 -12 -12 -12 -12 -12 -11 -11 -11 -11 -11
-15 -15 -15 -15 -15 -15 -15 -15 -14 -14 -13 -13 -14 -13 -13 -13 -13 -13 -13 -13 -13 -13 -13 -13 -13 -13 -13 -13 -13 -13 -13 -13 -12 -12 -12 -12 -12 -12 -12 -11 -11 -11 -11
-16 -16 -16 -16 -16 -15 -15 -15 -14 -14 -13 -13 -14 -13 -13 -13 -13 -13 -14 -14 -14 -14 -14 -13 -13 -13 -13 -13 -13 -13 -13 -13 -13 -13 -12 -12 -12 -12 -12 -11 -11 -12 -12
Height
5879 5877 5874 5871 5867 5864 5860 5855 5851 5847 5844 5842 5841 5842 5841 5839 5839 5842 5843 5847 5851 5853 5857 5858 5859 5860 5861 5862 5862 5864 5864 5865 5866 5868 5868 5869 5870 5870 5870 5870 5871 5871 5871
5876 5875 5873 5870 5866 5862 5859 5854 5850 5846 5843 5840 5837 5836 5836 5834 5833 5834 5838 5841 5844 5847 5850 5851 5852 5852 5854 5856 5856 5857 5858 5858 5860 5860 5863 5865 5866 5867 5867 5867 5868 5868 5869
5874 5871 5869 5867 5865 5861 5856 5852 5847 5844 5842 5840 5836 5835 5834 5832 5831 5833 5833 5836 5839 5841 5843 5844 5846 5846 5848 5849 5851 5852 5852 5852 5853 5854 5856 5858 5860 5860 5859 5861 5863 5864 5865
5872 5869 5867 5865 5862 5861 5857 5852 5847 5843 5840 5839 5837 5835 5834 5832 5830 5831 5831 5832 5834 5835 5835 5837 5838 5839 5839 5841 5844 5845 5845 5846 5847 5849 5850 5851 5853 5854 5855 5857 5857 5859 5859
5869 5866 5863 5861 5858 5856 5855 5852 5848 5842 5838 5835 5833 5833 5834 5833 5832 5830 5828 5827 5828 5829 5829 5830 5831 5832 5832 5832 5835 5837 5839 5840 5840 5840 5842 5844 5846 5848 5849 5850 5852 5854 5854
5862 5860 5858 5856 5854 5852 5849 5848 5846 5843 5838 5834 5831 5829 5828 5828 5829 5829 5828 5825 5823 5822 5823 5823 5824 5824 5826 5826 5828 5829 5831 5831 5832 5832 5833 5836 5839 5841 5842 5843 5844 5845 5847
5856 5854 5852 5850 5847 5846 5844 5842 5841 5839 5837 5833 5829 5826 5824 5824 5824 5824 5824 5823 5822 5821 5820 5820 5819 5819 5820 5821 5820 5820 5821 5823 5825 5825 5826 5828 5831 5833 5836 5837 5836 5838 5839
5854 5852 5849 5846 5841 5838 5835 5833 5833 5832 5831 5829 5825 5822 5819 5817 5817 5817 5817 5818 5816 5815 5814 5813 5813 5814 5815 5814 5815 5815 5815 5815 5817 5818 5820 5820 5823 5825 5827 5827 5830 5832 5832
5850 5846 5843 5840 5837 5833 5830 5826 5823 5823 5822 5821 5819 5816 5814 5811 5810 5809 5809 5808 5807 5807 5806 5806 5805 5805 5806 5808 5809 5809 5809 5809 5812 5813 5813 5813 5813 5815 5816 5817 5820 5822 5824
5842 5838 5835 5832 5828 5825 5822 5819 5816 5813 5812 5811 5809 5808 5806 5804 5802 5802 5801 5800 5799 5798 5798 5798 5798 5798 5798 5800 5802 5802 5802 5802 5803 5805 5806 5805 5806 5806 5808 5809 5809 5812 5814
5830 5828 5825 5820 5816 5812 5809 5806 5804 5803 5802 5800 5799 5798 5796 5795 5794 5793 5792 5792 5791 5790 5790 5790 5790 5790 5790 5792 5793 5794 5794 5795 5796 5797 5798 5798 5798 5799 5799 5799 5800 5803 5805
5821 5817 5814 5810 5805 5800 5796 5794 5792 5791 5790 5790 5789 5787 5785 5784 5783 5783 5782 5782 5782 5782 5782 5781 5781 5781 5782 5783 5784 5784 5785 5785 5786 5788 5789 5790 5789 5789 5790 5791 5793 5794 5796
5811 5806 5802 5798 5793 5788 5785 5782 5780 5779 5778 5778 5777 5777 5775 5774 5772 5772 5772 5772 5772 5772 5772 5772 5772 5772 5772 5772 5773 5774 5775 5776 5776 5778 5780 5781 5780 5780 5780 5782 5783 5784 5786
5798 5795 5791 5788 5784 5779 5775 5772 5770 5767 5766 5765 5764 5764 5763 5762 5760 5759 5759 5760 5760 5760 5760 5761 5761 5762 5761 5761 5761 5762 5763 5764 5766 5768 5768 5769 5769 5771 5772 5771 5773 5773 5774
5787 5784 5780 5777 5773 5770 5767 5764 5761 5757 5755 5754 5752 5750 5750 5749 5747 5747 5746 5746 5747 5747 5747 5748 5749 5748 5748 5749 5749 5749 5750 5752 5754 5755 5756 5757 5758 5759 5760 5760 5761 5762 5763
5777 5773 5770 5768 5764 5760 5758 5756 5751 5748 5745 5743 5741 5739 5738 5737 5736 5734 5734 5734 5734 5734 5734 5734 5735 5735 5735 5735 5735 5736 5736 5738 5740 5742 5743 5744 5745 5746 5748 5749 5750 5751 5752
5767 5763 5760 5757 5754 5750 5747 5744 5743 5739 5734 5731 5728 5726 5725 5724 5722 5722 5721 5720 5720 5720 5720 5720 5720 5721 5721 5722 5722 5723 5724 5724 5725 5727 5730 5732 5733 5734 5735 5737 5738 5739 5739
5757 5753 5750 5746 5743 5739 5736 5732 5729 5727 5725 5721 5715 5712 5710 5709 5708 5707 5707 5705 5704 5704 5704 5704 5704 5704 5705 5707 5708 5709 5710 5711 5711 5712 5714 5717 5719 5720 5721 5722 5724 5726 5727
5746 5742 5739 5734 5730 5726 5723 5719 5715 5712 5709 5707 5704 5700 5695 5693 5690 5689 5688 5688 5687 5686 5686 5687 5686 5687 5688 5689 5691 5692 5694 5696 5697 5698 5699 5700 5703 5705 5707 5709 5710 5712 5713
5734 5730 5727 5723 5719 5714 5710 5706 5702 5698 5694 5690 5687 5684 5680 5677 5673 5671 5668 5666 5666 5667 5667 5668 5668 5668 5670 5672 5673 5675 5677 5679 5680 5682 5684 5685 5686 5689 5691 5694 5696 5698 5700
5725 5721 5716 5711 5706 5701 5697 5692 5687 5683 5678 5673 5668 5664 5660 5657 5653 5649 5647 5645 5644 5644 5645 5646 5648 5650 5652 5653 5655 5657 5660 5662 5663 5665 5667 5669 5671 5673 5675 5678 5681 5684 5686
5714 5710 5705 5700 5694 5688 5683 5678 5672 5667 5661 5655 5650 5645 5640 5636 5633 5631 5628 5626 5625 5624 5625 5626 5628 5630 5632 5635 5637 5640 5642 5645 5646 5647 5649 5651 5653 5656 5659 5663 5667 5670 5673
5704 5698 5692 5687 5681 5675 5669 5663 5657 5651 5645 5639 5633 5628 5624 5620 5617 5615 5613 5610 5608 5608 5609 5611 5612 5614 5615 5617 5620 5623 5626 5628 5629 5630 5632 5633 5636 5639 5643 5648 5652 5656 5659
5693 5687 5681 5675 5669 5663 5656 5650 5644 5637 5631 5625 5618 5614 5610 5607 5604 5602 5601 5599 5597 5596 5596 5597 5598 5600 5602 5603 5605 5607 5610 5612 5614 5616 5617 5618 5621 5624 5628 5632 5638 5642 5645
5682 5677 5671 5665 5659 5652 5646 5638 5631 5625 5619 5613 5607 5602 5598 5594 5591 5590 5589 5588 5588 5587 5586 5587 5587 5588 5589 5590 5592 5593 5595 5597 5600 5602 5604 5606 5609 5612 5615 5619 5624 5628 5632
5673 5667 5662 5656 5649 5643 5636 5628 5620 5612 5607 5601 5597 5593 5589 5584 5581 5579 5578 5578 5578 5579 5579 5578 5578 5578 5579 5580 5580 5582 5583 5584 5587 5590 5591 5594 5598 5601 5604 5607 5611 5615 5619
Wind_Speed
20 18 19 19 21 21 20 20 23 21 15 11 11 11 16 23 26 37 37 37 35 32 33 33 32 29 22 23 24 25 25 25 26 21 21 19 18 18 15 15 14 13 12
20 20 20 20 21 23 21 19 18 19 20 16 13 11 18 16 20 35 36 38 39 33 36 36 30 23 25 29 23 23 25 25 27 24 26 23 22 23 22 19 18 17 17
18 21 18 19 21 24 25 22 19 18 18 21 22 16 13 10 19 18 23 34 34 34 35 35 30 29 31 24 20 22 23 21 25 26 28 26 25 27 26 19 22 23 21
20 21 17 16 18 20 23 25 22 19 18 18 17 16 16 11 12 19 20 24 34 38 23 28 27 29 26 31 26 26 26 22 24 28 32 29 27 27 22 23 27 24 24
20 20 17 17 17 18 22 23 25 24 21 19 20 17 14 13 11 13 19 26 32 33 35 29 31 28 24 25 30 28 25 28 29 29 31 33 33 30 24 21 22 19 25
21 23 23 20 17 19 20 21 24 25 24 22 19 21 20 18 17 18 16 13 15 22 27 26 23 25 25 23 26 30 32 33 29 30 29 31 34 33 28 26 25 21 22
24 28 31 28 25 22 21 22 24 25 25 25 23 22 22 22 21 20 22 22 22 19 19 19 16 17 20 19 21 20 24 29 30 27 28 33 34 35 33 31 33 28 26
25 27 29 29 29 31 31 30 28 29 29 27 26 25 24 25 26 25 24 25 24 26 25 23 24 21 19 18 17 19 23 24 26 25 25 29 30 31 34 36 36 32 29
29 29 30 30 29 29 34 36 36 34 33 34 30 28 27 26 26 27 28 28 28 29 29 29 29 30 25 20 21 20 21 22 22 21 21 30 32 33 31 32 34 36 34
30 31 31 33 35 36 37 36 37 38 36 37 36 32 30 28 27 26 27 29 29 30 29 30 29 29 29 25 23 24 25 25 23 24 23 23 24 29 32 33 31 34 30
35 36 37 39 42 43 38 36 36 36 36 37 37 36 35 33 30 28 29 29 30 31 31 31 30 31 31 30 28 27 27 27 25 25 25 26 27 28 28 31 39 39 36
38 41 43 43 43 43 42 39 38 38 36 37 36 35 35 35 35 34 31 30 31 31 33 33 32 32 32 31 31 29 29 30 30 29 28 27 29 31 33 31 31 31 34
41 43 43 41 40 41 40 40 39 37 37 40 37 35 36 37 38 38 36 35 34 33 33 34 35 36 36 35 34 34 34 34 33 33 33 32 32 33 33 34 35 32 33
41 40 39 39 37 36 36 36 36 38 37 37 39 42 41 40 42 44 42 40 39 38 37 36 37 37 38 38 39 39 38 39 39 37 37 36 35 35 34 34 33 36 36
40 39 38 36 34 32 32 31 31 32 32 31 34 36 36 36 37 38 41 41 41 41 41 40 39 40 41 41 43 44 43 43 42 40 38 37 38 38 37 36 36 36 35
38 36 36 34 34 34 33 32 34 34 35 36 35 36 37 36 35 37 39 39 40 41 41 41 42 44 44 45 45 46 47 46 45 45 42 40 40 40 39 38 38 38 35
35 35 35 35 35 35 35 35 33 35 38 40 40 41 41 40 42 42 43 44 45 45 45 45 45 45 46 46 46 47 47 48 48 47 45 43 44 43 42 40 40 41 39
35 36 36 36 35 35 36 38 39 39 38 40 44 45 46 46 46 46 46 47 48 48 48 49 48 49 49 48 49 49 48 49 49 50 49 47 45 45 44 43 43 43 43
38 37 36 37 38 40 42 43 43 43 42 41 41 44 46 47 48 49 49 50 52 53 53 52 52 52 52 51 50 50 50 49 49 49 50 51 48 46 45 44 44 46 45
38 39 40 42 44 45 46 46 46 46 47 48 48 49 50 51 53 55 57 57 56 55 53 52 53 54 54 52 52 51 51 51 51 51 51 52 53 50 49 46 45 45 45
42 43 44 46 47 47 47 48 49 50 52 53 55 56 57 57 55 56 57 58 59 58 56 55 54 53 53 53 52 52 52 52 52 51 51 51 53 53 52 50 45 44 43
43 44 46 47 48 48 48 50 52 53 55 57 57 55 51 48 48 47 47 48 48 47 49 50 51 52 53 53 52 51 50 50 50 51 53 54 56 57 54 51 46 44 42
47 48 48 48 47 48 48 50 51 52 51 50 50 46 43 44 42 39 38 40 40 40 41 41 41 42 44 47 49 48 47 47 47 49 48 49 48 51 52 49 46 44 42
46 45 44 44 44 45 45 46 47 43 43 44 41 36 36 38 36 35 33 31 31 32 33 36 38 39 39 39 41 42 42 43 44 43 42 41 39 40 43 45 44 43 43
40 39 39 39 41 43 44 44 45 45 43 38 36 35 34 33 33 33 34 32 29 27 27 28 29 30 31 32 33 35 37 38 38 38 38 38 37 37 38 40 41 43 45
36 36 36 38 39 39 41 43 45 42 39 34 34 30 32 31 28 27 27 27 26 23 23 25 26 27 28 28 30 33 35 36 36 35 35 35 35 35 37 37 39 42 43
Wind_Direction
347 340 336 335 336 338 341 341 344 351 330 304 287 265 273 260 244 229 228 238 228 234 244 246 245 247 252 252 242 245 247 244 247 252 253 261 259 248 239 236 233 244 258
343 339 331 332 334 334 340 342 339 344 345 346 326 302 276 289 252 234 244 240 229 232 243 249 251 255 258 265 233 240 244 252 248 244 255 258 260 260 250 240 251 251 249
329 333 323 326 326 331 333 339 342 337 331 329 336 345 300 283 250 221 215 234 243 235 246 248 246 258 262 261 257 252 249 255 248 239 245 254 260 270 227 253 232 246 250
325 328 317 312 313 319 324 328 334 334 332 322 327 330 338 313 271 256 248 248 247 242 245 243 252 255 265 256 256 255 256 257 258 252 248 244 252 263 254 252 250 247 253
317 327 329 306 308 313 312 317 321 326 326 324 318 314 310 306 304 289 255 238 246 251 255 256 252 260 255 260 252 252 258 260 260 252 252 246 244 245 254 252 263 263 262
314 322 323 317 305 299 303 306 309 313 316 316 308 304 302 294 285 277 280 285 256 240 249 261 256 255 250 253 255 256 259 259 262 255 257 247 246 249 251 253 257 255 266
315 315 312 312 313 309 299 298 300 302 303 304 304 296 290 288 283 277 274 266 262 267 265 264 260 262 262 270 281 256 255 251 255 255 254 248 252 250 248 251 252 255 252
292 294 297 303 306 307 306 303 297 293 291 291 292 292 287 282 282 280 274 271 269 272 272 268 270 271 266 270 278 261 258 245 252 261 262 257 254 256 255 254 247 255 253
285 286 287 288 290 293 295 293 291 287 282 284 283 285 284 282 277 277 279 278 272 267 264 263 266 272 271 266 265 265 265 259 261 266 269 259 254 256 268 255 250 250 254
286 289 292 291 292 293 292 287 281 280 279 275 277 277 279 277 278 275 270 273 273 273 271 268 264 264 269 268 265 265 263 265 267 266 267 271 267 260 262 261 255 253 254
300 298 298 299 299 296 294 288 281 274 276 275 273 273 275 275 275 274 274 271 269 271 271 269 268 267 266 266 268 269 270 270 270 270 271 266 263 261 263 264 260 259 259
296 297 299 300 297 293 292 288 284 278 274 275 273 273 273 273 272 270 269 269 268 267 268 269 267 266 265 264 267 268 269 271 273 272 273 274 271 267 264 262 265 265 263
296 298 299 297 296 295 292 291 288 282 276 270 271 271 272 274 276 274 271 268 268 265 262 261 262 265 267 267 266 266 268 271 272 273 272 271 273 275 274 268 264 261 259
301 300 299 298 297 293 291 289 285 282 279 274 270 270 272 272 270 270 270 268 267 267 264 261 262 262 261 262 264 265 267 270 272 273 271 269 267 269 271 271 269 264 260
302 300 299 298 296 294 293 291 290 289 287 284 280 278 274 273 271 268 267 268 268 267 265 264 263 263 263 264 266 265 264 266 268 269 270 268 267 268 270 270 271 269 268
299 298 296 295 295 294 293 292 292 290 289 288 283 281 281 277 273 273 272 270 268 267 265 263 262 263 265 265 264 264 265 264 264 263 264 265 264 264 265 268 270 271 269
300 298 296 296 295 294 294 293 290 289 289 287 285 283 280 276 275 272 271 270 269 268 266 265 264 263 261 261 262 264 266 267 267 265 263 263 263 262 263 265 268 271 271
298 298 298 297 296 296 296 295 293 290 286 286 286 283 281 279 278 275 272 270 269 268 267 266 265 264 262 261 260 260 259 260 263 265 265 262 261 261 260 263 266 268 269
300 300 298 298 299 300 300 299 296 294 292 289 288 286 285 283 282 280 277 272 269 268 266 265 264 263 262 262 260 259 258 257 258 260 263 265 263 261 261 261 263 265 266
303 302 301 301 300 300 299 298 297 295 293 292 290 288 286 284 281 280 278 276 273 269 266 264 261 261 260 260 260 259 258 258 257 258 258 260 262 261 261 260 260 261 262
302 301 301 301 301 301 300 299 298 297 295 294 294 292 289 287 285 282 278 276 274 271 266 261 259 259 258 257 257 256 257 258 258 257 256 256 257 258 257 257 257 257 257
301 301 301 301 301 300 300 300 300 299 299 298 297 296 292 287 285 283 280 278 274 271 266 262 259 256 254 254 254 255 255 256 257 258 258 257 254 253 253 253 252 250 254
301 301 302 303 304 304 305 305 304 303 301 299 299 293 289 289 285 282 282 280 276 269 262 262 262 259 258 256 255 254 255 257 257 261 263 262 257 252 249 248 247 245 246
301 303 305 306 307 308 306 305 304 303 301 305 301 295 291 288 282 278 277 278 275 269 263 260 260 260 261 259 258 257 255 255 257 257 256 257 255 251 248 244 244 243 241
306 306 307 309 309 308 308 309 309 303 307 303 303 299 296 294 284 275 272 273 273 271 270 268 265 263 261 259 258 257 257 256 255 254 254 254 249 247 245 242 243 239 239
307 309 311 312 311 312 313 314 314 309 307 303 307 300 302 298 291 281 274 272 272 271 271 272 268 266 261 259 258 259 260 260 257 253 251 249 249 249 242 238 237 235 237